{"data":{"norad_id":48594,"intl_designator":"2021-041AT","name":"STARLINK-2251","alt_names":[],"object_type":"PAYLOAD","status":"ACTIVE","operator":null,"country":"US","launch_date":"2021-05-15","launch_site_code":"AFETR","launch_vehicle":null,"mission":null,"orbit_class":"UNKNOWN","rcs_meters":null,"size_class":null,"mass_kg":null,"dimensions":null,"purposes":["comms"],"wikipedia_slug":null,"has_3d_model":false,"image_url":null,"decayed_at":null,"tle_current":{"epoch":"2026-09-19T15:30:57.164544Z","epoch_age_seconds":111087,"freshness":"FRESH","line1":"1 48594U 21041AT  26262.64649496  .00001507  00000+0  60294-4 0  9991","line2":"2 48594  53.1610 293.2420 0001314  68.9904 291.1238 15.31717507295149","mean_motion":15.31717507,"eccentricity":0.0001314,"inclination_deg":53.161,"raan_deg":293.242,"arg_perigee_deg":68.9904,"mean_anomaly_deg":291.1238,"bstar":6.0294e-5,"rev_number":29514,"period_min":94.012113422949,"perigee_km":469.7878726869,"apogee_km":471.58774384651,"semimajor_km":6848.8248082667,"source":"CELESTRAK","updated_at":"2026-09-20T09:00:39.138047Z"}}}